Regional Weather Roundup
Issued by NWS

Home | Current Version | Previous Version | Graphics & Text | Print | Product List | Glossary On
Versions: 1 2 3 4 5 6 7 8 9 10 11 12 13 14 15 16 17 18 19 20 21 22 23 24 25 26 27 28 29 30 31 32 33 34 35 36 37 38 39 40 41 42 43 44 45 46 47 48 49 50
000
ASUS45 KBOI 261910
RWRID

IDAHO REGIONAL WEATHER ROUNDUP
NATIONAL WEATHER SERVICE BOISE ID
100 PM MDT TUE MAY 26 2015

NOTE: "FAIR" INDICATES FEW OR NO CLOUDS BELOW 12000 FEET
WITH NO SIGNIFICANT WEATHER AND/OR OBSTRUCTIONS TO VISIBILITY

IDZ012-014-262000-
SOUTHWEST IDAHO


CITY           SKY/WX    TMP DP  RH WIND       PRES   REMARKS
BOISE          MOSUNNY   70  47  43 CALM      29.93F
CALDWELL       MOSUNNY   72  45  37 N5        29.94F
MOUNTAIN HOME  MOSUNNY   74  43  33 W3        29.92F
$$

IDZ016-017-262000-
SOUTHCENTRAL IDAHO


CITY           SKY/WX    TMP DP  RH WIND       PRES   REMARKS
BURLEY         MOSUNNY   65  50  58 S14       29.98F
JEROME         SUNNY     66  47  50 VRB3      29.98F
TWIN FALLS     MOSUNNY   68  46  45 S9        29.96F
$$

IDZ019>023-262000-
SOUTHEAST IDAHO


CITY           SKY/WX    TMP DP  RH WIND       PRES   REMARKS
IDAHO FALLS    PTSUNNY   64  48  56 SW20G25   30.01S
POCATELLO      PTSUNNY   62  48  60 S8        30.02F
REXBURG        PTSUNNY   63  48  58 SW12      30.00F
$$

IDZ006-010-011-018-031-032-262000-
CENTRAL IDAHO MOUNTAINS


CITY           SKY/WX    TMP DP  RH WIND       PRES   REMARKS
MCCALL         MOSUNNY   61  37  41 W3        29.98F
HAILEY         MOSUNNY   63  45  51 SE10      30.01F
STANLEY          N/A     59  36  42 NW3       30.04F
SALMON         MOSUNNY   63  46  55 W3        29.95F
CHALLIS        MOSUNNY   67  35  30 NE9       29.97F
$$

IDZ002-004-006-007-026-262000-
NORTHERN IDAHO


CITY           SKY/WX    TMP DP  RH WIND       PRES   REMARKS
LEWISTON       CLOUDY    67  50  54 NW7       29.96R
LOWELL           N/A     73  47  39 VRB3      29.92F
COEUR D`ALENE  PTSUNNY   64  48  55 SW7       29.96S
MULLAN PASS    CLOUDY    48  40  73 CALM      30.03S
$$



USA.gov is the U.S. government's official web portal to all federal, state and local government web resources and services.